Date,TemperatureHighF,TemperatureAvgF,TemperatureLowF,DewpointHighF,DewpointAvgF,DewpointLowF,HumidityHigh,HumidityAvg,HumidityLow,PressureMaxIn,PressureMinIn,WindSpeedMaxMPH,WindSpeedAvgMPH,GustSpeedMaxMPH,PrecipitationSumIn
2013-3-1,26.8,23.5,15.2,21.4,18.1,12.3,88,80,67,30.35,30.18,12,3,12,0.00
2013-3-2,30.7,19.1,8.7,19.8,13.8,6.4,91,80,61,30.36,30.19,8,1,8,0.00
2013-3-3,28.4,23.6,18.1,22.7,18.3,13.4,92,80,58,30.20,29.98,24,10,24,0.00
2013-3-4,28.5,25.5,22.5,25.6,23.2,20.3,94,91,86,30.02,29.88,30,14,30,0.00
2013-3-5,32.0,26.7,24.2,27.1,23.9,20.9,96,89,79,30.29,29.95,21,4,21,0.05
2013-3-6,26.5,21.0,12.2,21.7,17.4,9.8,94,86,76,30.43,30.28,13,2,13,0.00
2013-3-7,25.0,15.6,2.9,20.7,12.6,-0.1,94,88,82,30.41,30.33,20,6,22,0.00
2013-3-8,34.8,26.5,14.0,32.2,24.0,11.9,95,90,85,30.36,30.09,25,12,27,0.05
2013-3-9,35.6,34.3,33.5,35.3,33.9,32.2,99,98,94,30.09,29.68,26,12,26,0.68
2013-3-10,34.4,32.7,29.9,34.4,32.5,29.6,100,99,97,29.84,29.68,24,7,24,0.17
2013-3-11,29.9,26.3,22.2,29.6,24.1,18.2,99,92,80,29.91,29.73,19,5,19,0.02
2013-3-12,29.1,24.4,19.4,26.7,20.2,15.5,92,84,73,30.22,29.90,20,6,20,0.00
2013-3-13,28.4,19.6,13.2,21.4,15.6,10.8,91,84,71,30.45,30.22,11,3,12,0.00
2013-3-14,40.8,29.5,15.8,32.8,25.5,13.3,94,85,71,30.33,30.05,21,5,21,0.07
2013-3-15,39.2,34.5,29.1,34.7,31.9,26.7,98,90,83,30.06,29.74,16,4,17,0.00
2013-3-16,33.2,26.7,18.8,32.7,22.6,13.9,98,85,72,30.23,29.81,19,6,21,0.00
2013-3-17,30.9,22.6,12.7,26.8,17.7,8.1,88,81,74,30.24,29.90,24,10,25,0.00
2013-3-18,31.5,23.5,13.3,30.6,19.9,7.9,97,86,73,29.93,29.67,24,11,28,0.00
2013-3-19,26.6,16.4,9.3,17.1,8.9,4.2,82,72,57,30.29,29.93,20,6,20,0.00
2013-3-20,21.5,14.5,8.1,10.0,5.9,2.5,80,69,54,30.32,30.18,17,5,17,0.00
2013-3-21,29.3,16.2,5.9,13.9,8.0,2.2,86,71,48,30.18,30.07,11,1,12,0.00
2013-3-22,33.2,22.3,11.8,19.1,14.2,8.0,87,71,52,30.13,30.07,8,1,8,0.00
2013-3-23,35.7,28.2,19.4,24.2,19.7,15.3,86,71,51,30.18,30.08,11,2,11,0.00
2013-3-24,32.2,27.9,25.0,27.5,24.6,22.2,93,87,78,30.10,29.93,14,4,16,0.00
2013-3-25,34.4,29.2,24.7,25.3,22.3,18.9,88,75,60,30.25,29.99,18,6,18,0.00
2013-3-26,38.5,28.2,19.5,28.1,22.1,17.0,90,78,49,30.33,30.25,10,2,10,0.00
2013-3-27,39.7,31.6,24.7,28.4,25.2,22.0,91,78,59,30.36,30.30,9,1,9,0.00
2013-3-28,44.2,35.0,28.6,37.4,28.9,20.7,88,78,70,30.35,30.26,12,4,12,0.00
2013-3-29,52.9,40.1,31.2,43.4,34.6,26.8,89,81,66,30.29,30.10,15,5,15,0.00
2013-3-30,53.9,44.1,37.3,49.3,40.2,33.5,96,86,71,30.10,29.85,20,5,20,0.00
2013-3-31,40.1,34.6,26.0,38.0,29.0,19.8,98,81,55,30.10,29.84,20,5,20,0.00